Truckee, CA

10:39 PM PDT on August 30, 2016 (GMT -0700)
Truckee-Tahoe

Weather History for KTRK - February, 2014

Change the Weather History Date:

Friday, February 7, 2014

  Actual Average Record
Temperature  
Mean Temperature 32 °F -  
Max Temperature 37 °F 41 °F 61 °F (1963)
Min Temperature 30 °F 14 °F -22 °F (1989)
Degree Days  
Heating Degree Days 32    
Moisture  
Dew Point 28 °F    
Average Humidity 84    
Maximum Humidity 93    
Minimum Humidity 69    
Precipitation  
Precipitation 0.00 in - - ()
Snow  
Snow 0.00 in - - ()
Snow Depth 4.00 in    
Sea Level Pressure  
Sea Level Pressure 29.90 in    
Wind  
Wind Speed 10 mph (SSW)    
Max Wind Speed 22 mph    
Max Gust Speed 37 mph    
Visibility 7 miles    
Events Rain , Snow    
Averages and records for this station are not official NWS values.
T = Trace of Precipitation, MM = Missing Value Source: NWS Daily Summary

Daily Weather History Graph

Daily Weather History Graph

Search for Another Location

Airport or City:

Trip Planner

Search our weather history database for the weather conditions in past years. The results will help you decide how hot, cold, wet, or windy it might be!

Date:

Astronomy

Feb. 07, 2014 Rise Set
Actual Time 7:01 AM PST 5:28 PM PST
Civil Twilight 6:33 AM PST 5:56 PM PST
Nautical Twilight 6:01 AM PST 6:28 PM PST
Astronomical Twilight 5:30 AM PST 6:59 PM PST
Moon 11:43 AM PST (2/7) 1:22 AM PST (2/7)
Length of Visible Light 11h 22m
Length of Day
10h 26m
First Quarter, 60% of the Moon is Illuminated
Feb 7
First Quarter
Feb 14
Full
Feb 22
Last Quarter
Mar 1
New
Mar 8
First Quarter

Hourly Weather History & Observations

Time (PST) Temp. Windchill Dew Point Humidity Pressure Visibility Wind Dir Wind Speed Gust Speed Precip Events Conditions
12:15 AM 30.2 °F 21.3 °F 24.8 °F 80% 29.86 in 10.0 mi SW 10.4 mph 16.1 mph N/A   Clear
12:35 AM 30.2 °F 20.2 °F 26.6 °F 86% 29.86 in 10.0 mi SW 12.7 mph 20.7 mph N/A   Scattered Clouds
12:55 AM 30.2 °F 21.3 °F 24.8 °F 80% 29.86 in 10.0 mi SW 10.4 mph 16.1 mph N/A   Scattered Clouds
1:15 AM 30.2 °F 21.3 °F 24.8 °F 80% 29.86 in 10.0 mi SW 10.4 mph - N/A   Mostly Cloudy
1:35 AM 30.2 °F 21.3 °F 24.8 °F 80% 29.86 in 10.0 mi SW 10.4 mph - N/A   Mostly Cloudy
1:55 AM 32.0 °F 23.6 °F 23.0 °F 69% 29.86 in 10.0 mi SW 10.4 mph 18.4 mph N/A   Mostly Cloudy
2:15 AM 30.2 °F 20.8 °F 26.6 °F 86% 29.87 in 7.0 mi SSW 11.5 mph - N/A   Mostly Cloudy
2:35 AM 30.2 °F 21.3 °F 26.6 °F 86% 29.88 in 10.0 mi SSW 10.4 mph - N/A   Mostly Cloudy
2:55 AM 30.2 °F 24.3 °F 26.6 °F 86% 29.88 in 5.0 mi South 5.8 mph - N/A Snow Light Snow
3:15 AM 30.2 °F 24.3 °F 24.8 °F 80% 29.88 in 10.0 mi South 5.8 mph - N/A   Overcast
3:35 AM 32.0 °F 27.5 °F 23.0 °F 69% 29.88 in 10.0 mi South 4.6 mph - N/A   Overcast
3:55 AM 32.0 °F 25.6 °F 24.8 °F 75% 29.89 in 10.0 mi South 6.9 mph - N/A   Overcast
4:15 AM 32.0 °F 26.4 °F 24.8 °F 75% 29.89 in 10.0 mi South 5.8 mph - N/A   Overcast
4:35 AM 32.0 °F - 24.8 °F 75% 29.89 in 10.0 mi Calm Calm - N/A   Overcast
4:55 AM 32.0 °F 24.2 °F 24.8 °F 75% 29.89 in 10.0 mi SSE 9.2 mph - N/A   Overcast
5:15 AM 32.0 °F 24.2 °F 26.6 °F 80% 29.89 in 7.0 mi South 9.2 mph - N/A   Overcast
5:35 AM 32.0 °F 27.5 °F 26.6 °F 80% 29.90 in 10.0 mi SSW 4.6 mph 17.3 mph N/A   Mostly Cloudy
6:45 AM 30.2 °F 26.7 °F 28.4 °F 93% 29.90 in 6.0 mi South 3.5 mph - N/A Snow Snow
7:45 AM 32.0 °F 26.4 °F 24.8 °F 75% 29.91 in 7.0 mi South 5.8 mph - N/A   Mostly Cloudy
8:55 AM 33.8 °F 27.0 °F 26.6 °F 75% 29.92 in 4.0 mi South 8.1 mph 19.6 mph N/A Snow Light Snow
10:55 AM 35.6 °F 27.5 °F 26.6 °F 70% 29.95 in 3.0 mi South 11.5 mph 18.4 mph N/A Snow Light Snow
11:55 AM 35.6 °F 25.9 °F 26.6 °F 70% 29.94 in 4.0 mi South 16.1 mph 21.9 mph N/A Snow Light Snow
12:55 PM 35.6 °F 25.9 °F 26.6 °F 70% 29.92 in 3.0 mi South 16.1 mph 23.0 mph N/A Snow Light Snow
1:55 PM 33.8 °F 25.3 °F 28.4 °F 81% 29.91 in 3.0 mi South 11.5 mph 18.4 mph N/A Snow Light Snow
2:50 PM 32.0 °F 23.6 °F 28.4 °F 87% 29.98 in 0.5 mi SSW 10.4 mph 20.7 mph N/A Snow Snow
3:50 PM 32.0 °F 23.6 °F 28.4 °F 87% 29.89 in 3.0 mi SW 10.4 mph 19.6 mph N/A Snow Light Snow
4:45 PM 33.8 °F 29.6 °F 28.4 °F 81% 29.86 in 2.0 mi South 4.6 mph - N/A Snow Light Snow
4:55 PM 32.0 °F 28.7 °F 28.4 °F 87% 29.87 in 4.0 mi SSW 3.5 mph - N/A Snow Light Snow
5:15 PM 32.0 °F 23.6 °F 30.2 °F 93% 29.88 in 2.0 mi WSW 10.4 mph 18.4 mph N/A Snow Light Snow
5:35 PM 32.0 °F 28.7 °F 30.2 °F 93% 29.88 in 1.2 mi WSW 3.5 mph - N/A Snow Light Snow
5:55 PM 32.0 °F 24.8 °F 30.2 °F 93% 29.88 in 3.0 mi WSW 8.1 mph - N/A Snow Light Snow
6:15 PM 32.0 °F - 30.2 °F 93% 29.88 in 3.0 mi Calm Calm - N/A Snow Light Snow
6:35 PM 32.0 °F 25.6 °F 30.2 °F 93% 29.88 in 4.0 mi SW 6.9 mph 18.4 mph N/A Snow Light Snow
6:55 PM 32.0 °F 25.6 °F 30.2 °F 93% 29.89 in 3.0 mi WSW 6.9 mph - N/A Snow Light Snow
7:15 PM 32.0 °F 24.2 °F 30.2 °F 93% 29.88 in 4.0 mi WSW 9.2 mph - N/A Snow Light Snow
7:35 PM 33.8 °F 25.3 °F 30.2 °F 87% 29.88 in 5.0 mi WSW 11.5 mph 18.4 mph N/A Snow Light Snow
7:55 PM 33.8 °F 28.6 °F 30.2 °F 87% 29.88 in 5.0 mi WSW 5.8 mph 16.1 mph N/A Snow Light Snow
8:15 PM 33.8 °F 29.6 °F 30.2 °F 87% 29.89 in 7.0 mi SW 4.6 mph - N/A Snow Light Snow
8:35 PM 33.8 °F 24.3 °F 32.0 °F 93% 29.89 in 7.0 mi SW 13.8 mph 21.9 mph N/A Snow Light Snow
8:55 PM 33.8 °F 25.8 °F 32.0 °F 93% 29.90 in 10.0 mi SW 10.4 mph 21.9 mph N/A Rain Light Rain
9:15 PM 33.8 °F 23.9 °F 32.0 °F 93% 29.90 in 7.0 mi SW 15.0 mph 23.0 mph N/A Rain Light Rain
9:35 PM 35.6 °F 24.2 °F 32.0 °F 87% 29.90 in 10.0 mi SW 21.9 mph 33.4 mph N/A Rain Rain
9:55 PM 35.6 °F 25.9 °F 32.0 °F 87% 29.92 in 7.0 mi WSW 16.1 mph 25.3 mph N/A Rain Light Rain
10:15 PM 35.6 °F 25.2 °F 32.0 °F 87% 29.93 in 10.0 mi WSW 18.4 mph 28.8 mph N/A   Light Drizzle
10:35 PM 35.6 °F 27.1 °F 32.0 °F 87% 29.94 in 10.0 mi SW 12.7 mph 33.4 mph N/A Rain Rain
10:55 PM 35.6 °F 25.5 °F 32.0 °F 87% 29.94 in 10.0 mi SW 17.3 mph 25.3 mph N/A Rain Light Rain
11:15 PM 35.6 °F 25.9 °F 32.0 °F 87% 29.95 in 10.0 mi WSW 16.1 mph 36.8 mph N/A   Overcast
11:35 PM 35.6 °F 27.5 °F 32.0 °F 87% 29.97 in 10.0 mi WSW 11.5 mph 24.2 mph N/A Rain Light Rain
11:55 PM 37.4 °F 28.2 °F 32.0 °F 81% 29.98 in 10.0 mi SW 16.1 mph 26.5 mph N/A   Light Drizzle